• în România
  • Lista ţărilor
  • Pe 7 zile
  • Temperatura apei
  • Hartă satelitară
  • Meteo pe hartă
  • Widget-uri
  • user-avatar
    Intrare

    Meteo pe oră la Cam Ranh

    Astăzi, 17 August, Vineri

    Timp Temperatura Precipitaţii Vânt Presiune Umiditate
    00:00 +28°C° 0 mm 6 m/s 748 mmHg 78%
    01:00 +28°C° 0 mm 6 m/s 748 mmHg 80%
    02:00 +28°C° 0,1 mm 6 m/s 748 mmHg 81%
    03:00 +28°C° 0,1 mm 6 m/s 747 mmHg 83%
    04:00 +27°C° 0,1 mm 6 m/s 747 mmHg 84%
    05:00 +28°C° 0,3 mm 6 m/s 747 mmHg 81%
    06:00 +29°C° 0,3 mm 5 m/s 747 mmHg 79%
    07:00 +29°C° 0,3 mm 5 m/s 748 mmHg 77%
    08:00 +33°C° 0 mm 5 m/s 748 mmHg 66%
    09:00 +35°C° 0 mm 5 m/s 748 mmHg 56%
    10:00 +38°C° 0 mm 6 m/s 748 mmHg 46%
    11:00 +39°C° 0 mm 6 m/s 747 mmHg 44%
    12:00 +40°C° 0 mm 7 m/s 747 mmHg 42%
    13:00 +41°C° 0 mm 7 m/s 746 mmHg 39%
    14:00 +40°C° 0 mm 8 m/s 746 mmHg 43%
    15:00 +39°C° 0 mm 8 m/s 746 mmHg 47%
    16:00 +38°C° 0 mm 8 m/s 746 mmHg 51%
    17:00 +35°C° 0 mm 8 m/s 746 mmHg 57%
    18:00 +33°C° 0 mm 8 m/s 746 mmHg 62%
    19:00 +32°C° 0 mm 7 m/s 747 mmHg 68%
    20:00 +30°C° 0,1 mm 7 m/s 747 mmHg 71%
    21:00 +29°C° 0,1 mm 7 m/s 748 mmHg 75%
    22:00 +29°C° 0,1 mm 6 m/s 749 mmHg 78%
    23:00 +29°C° 0,1 mm 6 m/s 749 mmHg 79%

    Mâine, 18 August, Sâmbătă

    Timp Temperatura Precipitaţii Vânt Presiune Umiditate
    00:00 +28°C° 0,1 mm 6 m/s 748 mmHg 80%
    01:00 +28°C° 0,1 mm 6 m/s 748 mmHg 81%
    02:00 +28°C° 1,1 mm 6 m/s 748 mmHg 82%
    03:00 +28°C° 1,1 mm 5 m/s 748 mmHg 83%
    04:00 +28°C° 1,1 mm 5 m/s 748 mmHg 84%
    05:00 +28°C° 0,3 mm 5 m/s 748 mmHg 81%
    06:00 +29°C° 0,3 mm 5 m/s 748 mmHg 79%
    07:00 +30°C° 0,3 mm 5 m/s 749 mmHg 77%
    08:00 +33°C° 0 mm 6 m/s 749 mmHg 67%
    09:00 +35°C° 0 mm 6 m/s 749 mmHg 57%
    10:00 +39°C° 0 mm 6 m/s 749 mmHg 48%
    11:00 +39°C° 0 mm 6 m/s 749 mmHg 48%
    12:00 +39°C° 0 mm 7 m/s 748 mmHg 48%
    13:00 +39°C° 0 mm 7 m/s 748 mmHg 48%
    14:00 +38°C° 0 mm 8 m/s 748 mmHg 51%
    15:00 +37°C° 0 mm 8 m/s 747 mmHg 55%
    16:00 +35°C° 0 mm 8 m/s 747 mmHg 58%
    17:00 +34°C° 0,1 mm 8 m/s 747 mmHg 64%
    18:00 +32°C° 0,1 mm 7 m/s 748 mmHg 71%
    19:00 +30°C° 0,1 mm 7 m/s 749 mmHg 78%
    20:00 +29°C° 0,2 mm 7 m/s 749 mmHg 79%
    21:00 +29°C° 0,2 mm 6 m/s 750 mmHg 81%
    22:00 +28°C° 0,2 mm 6 m/s 750 mmHg 82%
    23:00 +28°C° 0,3 mm 6 m/s 750 mmHg 83%

    Poimâine, 19 August, Duminică

    Timp Temperatura Precipitaţii Vânt Presiune Umiditate
    00:00 +28°C° 0,3 mm 6 m/s 750 mmHg 84%
    01:00 +28°C° 0,3 mm 5 m/s 750 mmHg 84%
    02:00 +27°C° 0,1 mm 5 m/s 750 mmHg 84%
    03:00 +27°C° 0,1 mm 5 m/s 749 mmHg 84%
    04:00 +27°C° 0,1 mm 5 m/s 749 mmHg 84%
    05:00 +28°C° 0 mm 5 m/s 750 mmHg 80%
    06:00 +29°C° 0 mm 5 m/s 750 mmHg 77%
    07:00 +30°C° 0 mm 5 m/s 751 mmHg 74%
    08:00 +33°C° 0 mm 5 m/s 751 mmHg 65%
    09:00 +35°C° 0 mm 5 m/s 751 mmHg 57%
    10:00 +37°C° 0 mm 5 m/s 751 mmHg 49%
    11:00 +39°C° 0 mm 6 m/s 751 mmHg 49%
    12:00 +39°C° 0 mm 6 m/s 750 mmHg 49%
    13:00 +39°C° 0 mm 7 m/s 749 mmHg 50%
    14:00 +38°C° 0 mm 7 m/s 749 mmHg 51%
    15:00 +38°C° 0 mm 8 m/s 748 mmHg 53%
    16:00 +37°C° 0 mm 8 m/s 748 mmHg 55%
    17:00 +34°C° 0,3 mm 8 m/s 748 mmHg 64%
    18:00 +33°C° 0,3 mm 8 m/s 749 mmHg 72%
    19:00 +30°C° 0,3 mm 7 m/s 750 mmHg 81%
    20:00 +29°C° 0,3 mm 7 m/s 750 mmHg 82%
    21:00 +29°C° 0,3 mm 6 m/s 751 mmHg 83%
    22:00 +28°C° 0,3 mm 6 m/s 752 mmHg 84%
    23:00 +28°C° 0 mm 6 m/s 751 mmHg 84%

    20 August, Luni

    Timp Temperatura Precipitaţii Vânt Presiune Umiditate
    00:00 +28°C° 0 mm 6 m/s 751 mmHg 83%
    01:00 +28°C° 0 mm 5 m/s 750 mmHg 82%
    02:00 +28°C° 0 mm 5 m/s 750 mmHg 81%
    03:00 +28°C° 0 mm 5 m/s 750 mmHg 80%
    04:00 +28°C° 0 mm 5 m/s 750 mmHg 79%
    05:00 +29°C° 0 mm 4 m/s 750 mmHg 76%
    06:00 +29°C° 0 mm 4 m/s 750 mmHg 72%
    07:00 +30°C° 0 mm 4 m/s 751 mmHg 68%
    08:00 +34°C° 0 mm 4 m/s 751 mmHg 61%
    09:00 +36°C° 0 mm 4 m/s 751 mmHg 53%
    10:00 +39°C° 0 mm 5 m/s 751 mmHg 45%
    11:00 +40°C° 0 mm 5 m/s 750 mmHg 45%
    12:00 +40°C° 0 mm 6 m/s 750 mmHg 45%
    13:00 +40°C° 0 mm 7 m/s 749 mmHg 45%
    14:00 +39°C° 0,1 mm 7 m/s 749 mmHg 49%
    15:00 +38°C° 0,1 mm 8 m/s 748 mmHg 53%
    16:00 +37°C° 0,1 mm 8 m/s 748 mmHg 58%
    17:00 +34°C° 0,1 mm 8 m/s 748 mmHg 64%
    18:00 +33°C° 0,1 mm 7 m/s 749 mmHg 70%
    19:00 +30°C° 0,1 mm 7 m/s 750 mmHg 76%
    20:00 +30°C° 0 mm 7 m/s 750 mmHg 77%
    21:00 +29°C° 0 mm 6 m/s 750 mmHg 78%
    22:00 +29°C° 0 mm 6 m/s 751 mmHg 80%
    23:00 +29°C° 0 mm 6 m/s 750 mmHg 80%

    21 August, Marţi

    Timp Temperatura Precipitaţii Vânt Presiune Umiditate
    00:00 +29°C° 0 mm 5 m/s 750 mmHg 80%
    01:00 +28°C° 0 mm 5 m/s 749 mmHg 80%
    02:00 +28°C° 0 mm 5 m/s 749 mmHg 80%
    03:00 +28°C° 0 mm 5 m/s 749 mmHg 79%
    04:00 +28°C° 0 mm 5 m/s 748 mmHg 79%
    05:00 +29°C° 0 mm 5 m/s 749 mmHg 76%
    06:00 +30°C° 0 mm 4 m/s 749 mmHg 72%
    07:00 +30°C° 0 mm 4 m/s 749 mmHg 69%
    08:00 +34°C° 0 mm 4 m/s 750 mmHg 60%
    09:00 +36°C° 0 mm 4 m/s 750 mmHg 51%
    10:00 +40°C° 0 mm 4 m/s 750 mmHg 43%
    11:00 +40°C° 0 mm 5 m/s 749 mmHg 43%
    12:00 +40°C° 0 mm 6 m/s 748 mmHg 43%
    13:00 +40°C° 0 mm 7 m/s 748 mmHg 43%
    14:00 +40°C° 0,1 mm 7 m/s 747 mmHg 45%
    15:00 +39°C° 0,1 mm 7 m/s 747 mmHg 47%
    16:00 +39°C° 0,1 mm 8 m/s 747 mmHg 49%
    17:00 +37°C° 0 mm 8 m/s 747 mmHg 56%
    18:00 +34°C° 0 mm 8 m/s 748 mmHg 62%
    19:00 +32°C° 0 mm 8 m/s 749 mmHg 69%
    20:00 +32°C° 0 mm 7 m/s 749 mmHg 71%
    21:00 +30°C° 0 mm 7 m/s 749 mmHg 73%
    22:00 +29°C° 0 mm 6 m/s 750 mmHg 75%
    23:00 +29°C° 0 mm 6 m/s 749 mmHg 76%

    22 August, Miercuri

    Timp Temperatura Precipitaţii Vânt Presiune Umiditate
    00:00 +29°C° 0 mm 6 m/s 749 mmHg 77%
    01:00 +28°C° 0 mm 6 m/s 748 mmHg 78%
    02:00 +28°C° 0 mm 6 m/s 748 mmHg 78%
    03:00 +28°C° 0 mm 6 m/s 748 mmHg 78%
    04:00 +28°C° 0 mm 6 m/s 748 mmHg 78%
    05:00 +29°C° 0 mm 6 m/s 749 mmHg 75%
    06:00 +30°C° 0 mm 5 m/s 749 mmHg 71%
    07:00 +32°C° 0 mm 5 m/s 749 mmHg 68%
    08:00 +34°C° 0 mm 5 m/s 749 mmHg 59%
    09:00 +37°C° 0 mm 5 m/s 750 mmHg 51%
    10:00 +40°C° 0 mm 5 m/s 750 mmHg 42%
    11:00 +41°C° 0 mm 5 m/s 749 mmHg 40%
    12:00 +42°C° 0 mm 6 m/s 748 mmHg 38%
    13:00 +43°C° 0 mm 7 m/s 748 mmHg 36%
    14:00 +41°C° 0 mm 7 m/s 747 mmHg 41%
    15:00 +40°C° 0 mm 8 m/s 747 mmHg 45%
    16:00 +39°C° 0 mm 8 m/s 747 mmHg 49%
    17:00 +37°C° 0 mm 8 m/s 747 mmHg 56%
    18:00 +34°C° 0 mm 8 m/s 748 mmHg 63%
    19:00 +32°C° 0 mm 8 m/s 749 mmHg 70%
    20:00 +32°C° 0 mm 7 m/s 749 mmHg 72%
    21:00 +30°C° 0 mm 7 m/s 750 mmHg 74%
    22:00 +30°C° 0 mm 6 m/s 750 mmHg 76%
    23:00 +29°C° 0 mm 6 m/s 750 mmHg 76%
    Arată mai mult